Flag for United Arab Emirates Weather past 2 weeks in Umm al-Quwain, Umm al-Quwain, United Arab Emirates

Now
81 °F

Sunny.


Feels Like: 81 °F
Forecast: 79 / 93 °F
Wind: 8 mph from Southwest

Location: Sharjah International Airport


UV Index: 7 (High)

Visibility: 10 mi


Pressure: 29.77 "Hg

Humidity: 48%

Dew point: 59 °F

Location of Umm al-QuwainLocation

Historic Weather in Umm al-Quwain

°F

Umm al-Quwain temperature yesterday

Maximum temperature yesterday: 102 °F (at 1:00 PM)
Minimum temperature yesterday: 79 °F (at 5:00 AM)
Average temperature yesterday: 90 °F

Past Weeks' High & Low Weather Summary

 TemperatureHumidityPressure
High104 °F (Apr 16, 2:00 PM)100% (Apr 7, 6:00 AM)30.09 "Hg (Apr 7, 6:00 AM)
Low64 °F (Apr 7, 6:00 AM)5% (Apr 11, 12:00 PM)29.68 "Hg (Apr 3, 3:00 PM)
Average83 °F47%29.88 "Hg
* Reported Apr 3 6:00 AM — Apr 18 6:00 AM, Umm al-Quwain, Weather by CustomWeather, © 2014

Note: Actual official high and low records may vary slightly from our data, if they occured in-between our weather recording intervals... More about our weather records

Advertising

Historic Weather Conditions — Data for Previous 24 hours

 ConditionsComfort  
Time TempWeatherWind HumidityBarometerVisibility
6:00 AM
Apr 18
79 °FSunny.8 mph51%29.74 "Hg10 mi
5:00 AM81 °FClear.8 mph48%29.71 "Hg10 mi
4:00 AM79 °FClear.9 mph51%29.71 "Hg10 mi
3:00 AM79 °FClear.7 mph48%29.71 "Hg10 mi
2:00 AM81 °FClear.8 mph45%29.74 "Hg10 mi
1:00 AM82 °FClear.7 mph45%29.74 "Hg10 mi
12:00 AM82 °FClear.8 mph48%29.77 "Hg10 mi
11:00 PM
Apr 17
88 °FPassing clouds.6 mph40%29.77 "HgN/A
10:00 PM88 °FPassing clouds.3 mph38%29.77 "HgN/A
9:00 PM90 °FPassing clouds.3 mph36%29.74 "HgN/A
8:00 PM91 °FClear.12 mph32%29.71 "Hg10 mi
7:00 PM93 °FPassing clouds.8 mph30%29.71 "HgN/A
6:00 PM95 °FSunny.13 mph26%29.68 "Hg10 mi
5:00 PM97 °FSunny.16 mph23%29.68 "Hg10 mi
4:00 PM99 °FPassing clouds.16 mph22%29.68 "HgN/A
3:00 PM100 °FSunny.15 mph21%29.71 "Hg10 mi
2:00 PM102 °FSunny.15 mph18%29.74 "Hg10 mi
1:00 PM102 °FPassing clouds.12 mph18%29.74 "HgN/A
12:00 PM100 °FPassing clouds.8 mph22%29.77 "HgN/A
11:00 AM99 °FPassing clouds.6 mph22%29.80 "HgN/A
10:00 AM95 °FSunny.7 mph28%29.80 "Hg10 mi
9:00 AM91 °FPassing clouds.7 mph30%29.80 "HgN/A
8:00 AM86 °FPassing clouds.6 mph35%29.80 "HgN/A
7:00 AM81 °FPassing clouds.3 mph42%29.77 "HgN/A
Weather by CustomWeather, © 2014

See weather overview